Hourly Data Report for December 12, 2003

SHERBROOKE A
QUEBEC

45°26'00.000" N
71°41'00.000" W
241.40 m
7028124
71610
YSC

Download Data

Hourly Data (December 2003)
Hourly Data Report for December 12, 2003
TIME
LST
Temp Definition
°C
Dew Point Definition
°C
Rel Hum Definition
%
Precip. Amount Definition
mm

Wind Dir Definition
10's deg

Wind Spd Definition
km/h
Visibility Definition
km
Stn Press Definition
kPa
Hmdx Definition


Wind Chill Definition


Weather Definition


00:00 0.9 -0.1 93   26 33 3.7 96.35      
01:00 0.1 -1.1 92   25 28 3.2 96.47      
02:00 -0.5 -1.8 91   25 30 1.8 96.61   -7 Snow
03:00 -1.1 -2.4 91   26 19 1.3 96.74   -6 Snow
04:00 -2.1 -4.5 84   25 28 8.0 96.84   -9 Snow
05:00 -3.1 -5.5 83   26 32 6.4 97.00   -11 Snow
06:00 -3.6 -6.1 83   26 39 2.9 97.10   -12 Snow
07:00 -4.1 -6.8 81   25 30 5.6 97.28   -12 Snow
08:00 -4.7 -7.2 83   25 32 1.2 97.46   -13 Snow
09:00 -5.0 -7.5 83   25 28 1.6 97.60   -13 Snow Showers
10:00 -5.3 -7.6 84   26 24 2.4 97.73   -13 Snow Showers
11:00 -5.5 -9.1 76   26 26 4.8 97.79   -13 Snow Showers
12:00 -5.5 -9.3 75   26 33 12.9 97.82   -14 Snow Showers
13:00 -5.3 -9.1 75   26 30 9.7 97.89   -13 Snow Showers
14:00 -5.4 -9.4 73   26 30 12.9 97.99   -14 Snow Showers
15:00 -5.8 -10.0 72   26 28 24.1 98.12   -14 Snow Showers
16:00 -6.2 -10.5 72   27 28 19.3 98.24   -14 Snow Showers
17:00 -6.4 -9.6 78   25 17 19.3 98.36   -13 Snow Showers
18:00 -6.4 -9.7 77   25 13 15.0 98.43   -12 Snow
19:00 -6.5 -10.1 76   26 19 15.0 98.46   -13  
20:00 -6.6 -11.1 70   24 19 15.0 98.51   -13  
21:00 -6.7 -11.5 69   27 20 15.0 98.56   -14  
22:00 -7.7 -12.8 67   27 33 3.2 98.63   -17 Snow
23:00 -8.8 -13.8 67   27 32 15.0 98.70   -18 Snow

Notes on Data Quality.

Legend

  • E = Estimated
  • M = Missing
  • NA = Not Available*
  • [empty] = Indicates an unobserved value
Date modified: